Zurück zum Katalog

ARIANE 44LP DEB

SPELDA

AktivHEO
NORAD 26471·DEBRIS·🇫🇷 France

Gestartet Aug 17, 2000 von Guiana Space Centre

Loading…

Nächste Überflüge (nächste 24 Stunden)

TLE

AktuellSource: Space-Track

Epoche: Sep 14, 2026, 12:17 UTC

1 26471U 00046C   26257.51239293  .00000196  00000-0  76563-3 0  9992
2 26471   3.5144  94.5936 5493277 209.1227 104.2030  4.53347638356877

Verfolge ARIANE 44LP DEB in Echtzeit mit AllMySat

Download on the App Store